| time (UTC) | temp F | wind direction | speed MPH | gust MPH | rain 1hr in | rain 24hr in | rain mn in | humidity % | barometer mb |
| 20260506084022 | 52 | 19 | 8.0 | 9.0 | 0.00 | 0.00 | 0.00 | 65 | 1010.0 |
| 20260506083518 | 51 | 20 | 2.0 | 8.0 | 0.00 | 0.00 | 0.00 | 66 | 1009.9 |
| 20260506083014 | 51 | 67 | 5.0 | 8.0 | 0.00 | 0.00 | 0.00 | 67 | 1009.6 |
| 20260506082510 | 51 | 32 | 6.0 | 9.0 | 0.00 | 0.00 | 0.00 | 68 | 1009.7 |
| 20260506082006 | 51 | 20 | 4.0 | 6.0 | 0.00 | 0.00 | 0.00 | 67 | 1009.8 |
| 20260506081502 | 51 | 288 | 2.0 | 10.0 | 0.00 | 0.00 | 0.00 | 67 | 1009.7 |
| 20260506080958 | 52 | 258 | 1.0 | 4.0 | 0.00 | 0.00 | 0.00 | 68 | 1009.7 |
| 20260506080454 | 51 | 289 | 2.0 | 6.0 | 0.00 | 0.00 | 0.00 | 69 | 1009.7 |
| 20260506073430 | 50 | 41 | 5.0 | 11.0 | 0.00 | 0.00 | 0.00 | 70 | 1009.9 |
| 20260506072926 | 50 | 31 | 6.0 | 8.0 | 0.00 | 0.00 | 0.00 | 70 | 1009.5 |
| 20260506072422 | 50 | 341 | 4.0 | 11.0 | 0.00 | 0.00 | 0.00 | 71 | 1009.9 |
| 20260506071918 | 50 | 23 | 6.0 | 8.0 | 0.00 | 0.00 | 0.00 | 72 | 1009.8 |
| 20260506071414 | 50 | 304 | 2.0 | 9.0 | 0.00 | 0.00 | 0.00 | 72 | 1009.6 |
| 20260506070910 | 49 | 331 | 5.0 | 13.0 | 0.00 | 0.00 | 0.00 | 72 | 1009.7 |
| 20260506070406 | 50 | 25 | 4.0 | 6.0 | 0.00 | 0.00 | 0.00 | 72 | 1009.6 |
| 20260506062334 | 47 | 307 | 3.0 | 11.0 | 0.00 | 0.00 | 0.00 | 78 | 1009.6 |
| 20260506061830 | 47 | 352 | 4.0 | 10.0 | 0.00 | 0.00 | 0.00 | 78 | 1009.5 |
| 20260506061326 | 47 | 321 | 2.0 | 7.0 | 0.00 | 0.00 | 0.00 | 79 | 1009.6 |
| 20260506060822 | 47 | 306 | 2.0 | 3.0 | 0.00 | 0.00 | 0.00 | 79 | 1009.5 |
| 20260506060318 | 46 | 24 | 3.0 | 3.0 | 0.00 | 0.00 | 0.00 | 79 | 1009.3 |
| 20260506051238 | 47 | 24 | 1.0 | 6.0 | 0.00 | 0.00 | 0.00 | 77 | 1009.7 |
| 20260506050734 | 47 | 13 | 2.0 | 7.0 | 0.00 | 0.00 | 0.00 | 77 | 1009.3 |
| 20260506050230 | 47 | 284 | 2.0 | 3.0 | 0.00 | 0.00 | 0.00 | 77 | 1009.4 |
| 20260506044718 | 47 | 252 | 1.0 | 3.0 | 0.00 | 0.00 | 0.00 | 78 | 1009.4 |
| 20260506044214 | 47 | 249 | 1.0 | 8.0 | 0.00 | 0.00 | 0.00 | 78 | 1009.4 |
| 20260506043709 | 47 | 343 | 3.0 | 4.0 | 0.00 | 0.00 | 0.00 | 78 | 1009.5 |
| 20260506043205 | 47 | 5 | 1.0 | 3.0 | 0.00 | 0.00 | 0.00 | 78 | 1009.4 |
| 20260506042701 | 47 | 346 | 1.0 | 1.0 | 0.00 | 0.00 | 0.00 | 78 | 1009.0 |
| 20260506042158 | 47 | 340 | 3.0 | 4.0 | 0.00 | 0.00 | 0.00 | 78 | 1009.3 |
| 20260506041653 | 47 | 51 | 2.0 | 3.0 | 0.00 | 0.00 | 0.00 | 79 | 1009.4 |
| 20260506041149 | 47 | 57 | 2.0 | 4.0 | 0.00 | 0.00 | 0.00 | 79 | 1009.1 |
| 20260506040645 | 47 | 333 | 2.0 | 9.0 | 0.00 | 0.00 | 0.00 | 78 | 1009.3 |
| 20260506040141 | 47 | 142 | 1.0 | 4.0 | 0.00 | 0.00 | 0.00 | 79 | 1009.2 |
| 20260506035637 | 47 | 348 | 2.0 | 4.0 | 0.00 | 0.00 | 0.00 | 78 | 1009.4 |
| 20260506035134 | 48 | 212 | 2.0 | 7.0 | 0.00 | 0.00 | 0.00 | 78 | 1009.3 |
| 20260506034630 | 48 | 289 | 4.0 | 6.0 | 0.00 | 0.00 | 0.00 | 78 | 1009.3 |
| 20260506034126 | 48 | 271 | 2.0 | 2.0 | 0.00 | 0.00 | 0.00 | 78 | 1009.1 |
| 20260506033622 | 48 | 88 | 0.0 | 1.0 | 0.00 | 0.00 | 0.00 | 78 | 1009.3 |
| 20260506033118 | 48 | 329 | 1.0 | 2.0 | 0.00 | 0.00 | 0.00 | 77 | 1009.5 |
| 20260506032613 | 48 | 325 | 2.0 | 2.0 | 0.00 | 0.00 | 0.00 | 77 | 1009.3 |
| 20260506032109 | 48 | 281 | 2.0 | 4.0 | 0.00 | 0.00 | 0.00 | 76 | 1009.3 |
| 20260506031605 | 49 | 268 | 0.0 | 4.0 | 0.00 | 0.00 | 0.00 | 76 | 1009.3 |
| 20260506031101 | 49 | 28 | 1.0 | 3.0 | 0.00 | 0.00 | 0.00 | 76 | 1009.2 |
| 20260506030557 | 49 | 278 | 1.0 | 2.0 | 0.00 | 0.00 | 0.00 | 75 | 1009.4 |
| 20260506030053 | 49 | 33 | 2.0 | 7.0 | 0.00 | 0.00 | 0.00 | 74 | 1009.2 |
| 20260506025549 | 49 | 0 | 5.0 | 7.0 | 0.00 | 0.00 | 0.00 | 74 | 1009.2 |
| 20260506025046 | 49 | 22 | 4.0 | 8.0 | 0.00 | 0.00 | 0.00 | 74 | 1009.4 |
| 20260506024542 | 49 | 324 | 2.0 | 9.0 | 0.00 | 0.00 | 0.00 | 74 | 1009.2 |
| 20260506024038 | 49 | 351 | 5.0 | 8.0 | 0.00 | 0.00 | 0.00 | 74 | 1009.4 |
| 20260506023534 | 49 | 47 | 4.0 | 8.0 | 0.00 | 0.00 | 0.00 | 74 | 1009.5 |
| 20260506023030 | 49 | 18 | 6.0 | 11.0 | 0.00 | 0.00 | 0.00 | 74 | 1009.5 |
| 20260506022525 | 49 | 20 | 1.0 | 6.0 | 0.00 | 0.00 | 0.00 | 75 | 1009.4 |
| 20260506022021 | 49 | 3 | 1.0 | 7.0 | 0.00 | 0.00 | 0.00 | 76 | 1009.3 |
| 20260506021517 | 49 | 19 | 4.0 | 7.0 | 0.00 | 0.00 | 0.00 | 76 | 1009.5 |
| 20260506021013 | 49 | 29 | 3.0 | 9.0 | 0.00 | 0.00 | 0.00 | 76 | 1009.6 |
| 20260506020509 | 49 | 348 | 1.0 | 6.0 | 0.00 | 0.00 | 0.00 | 77 | 1009.5 |
| 20260506020005 | 50 | 308 | 1.0 | 8.0 | 0.00 | 0.00 | 0.00 | 77 | 1009.5 |
| 20260506015501 | 50 | 57 | 1.0 | 6.0 | 0.00 | 0.00 | 0.00 | 77 | 1009.7 |
| 20260506014958 | 50 | 13 | 3.0 | 7.0 | 0.00 | 0.00 | 0.00 | 77 | 1009.7 |
| 20260506014454 | 49 | 77 | 2.0 | 4.0 | 0.00 | 0.00 | 0.00 | 77 | 1009.4 |
| 20260506013950 | 50 | 328 | 3.0 | 6.0 | 0.00 | 0.00 | 0.00 | 78 | 1009.9 |
| 20260506013446 | 50 | 314 | 1.0 | 3.0 | 0.00 | 0.00 | 0.00 | 79 | 1009.8 |
| 20260506012942 | 50 | 292 | 2.0 | 7.0 | 0.00 | 0.00 | 0.00 | 79 | 1009.8 |
| 20260506012438 | 50 | 55 | 1.0 | 3.0 | 0.00 | 0.00 | 0.00 | 79 | 1009.8 |
| 20260506011934 | 50 | 12 | 1.0 | 3.0 | 0.00 | 0.00 | 0.00 | 78 | 1009.9 |
| 20260506011430 | 50 | 334 | 4.0 | 4.0 | 0.00 | 0.00 | 0.00 | 78 | 1009.8 |
| 20260506010926 | 50 | 20 | 4.0 | 4.0 | 0.00 | 0.00 | 0.00 | 78 | 1009.7 |
| 20260506010421 | 50 | 19 | 2.0 | 9.0 | 0.00 | 0.00 | 0.00 | 78 | 1009.7 |
| 20260506005917 | 50 | 19 | 4.0 | 7.0 | 0.00 | 0.00 | 0.00 | 78 | 1009.5 |
| 20260506005413 | 50 | 336 | 1.0 | 6.0 | 0.00 | 0.00 | 0.00 | 78 | 1009.4 |
| 20260506004910 | 50 | 34 | 4.0 | 6.0 | 0.00 | 0.00 | 0.00 | 78 | 1009.7 |
| 20260506004406 | 50 | 8 | 2.0 | 3.0 | 0.00 | 0.00 | 0.00 | 78 | 1009.6 |
| 20260506003902 | 50 | 29 | 4.0 | 7.0 | 0.00 | 0.00 | 0.00 | 77 | 1009.6 |
| 20260506003358 | 50 | 43 | 2.0 | 3.0 | 0.00 | 0.00 | 0.00 | 77 | 1009.6 |
| 20260506002854 | 50 | 45 | 7.0 | 14.0 | 0.00 | 0.00 | 0.00 | 77 | 1009.7 |
| 20260506002350 | 50 | 36 | 6.0 | 9.0 | 0.00 | 0.00 | 0.00 | 77 | 1009.7 |
| 20260506001846 | 51 | 29 | 9.0 | 10.0 | 0.00 | 0.00 | 0.00 | 76 | 1009.8 |
| 20260506001342 | 51 | 56 | 2.0 | 9.0 | 0.00 | 0.00 | 0.00 | 76 | 1009.8 |
| 20260506000838 | 51 | 328 | 2.0 | 6.0 | 0.00 | 0.00 | 0.00 | 76 | 1009.9 |
| 20260506000334 | 51 | 346 | 6.0 | 11.0 | 0.00 | 0.00 | 0.00 | 77 | 1009.8 |
| 20260505235830 | 51 | 45 | 1.0 | 3.0 | 0.00 | 0.00 | 0.00 | 77 | 1009.9 |
| 20260505235325 | 51 | 342 | 6.0 | 8.0 | 0.00 | 0.00 | 0.00 | 77 | 1009.7 |
| 20260505234822 | 51 | 48 | 4.0 | 6.0 | 0.00 | 0.00 | 0.00 | 77 | 1009.7 |
| 20260505234318 | 51 | 352 | 2.0 | 9.0 | 0.00 | 0.00 | 0.00 | 77 | 1009.8 |
| 20260505233814 | 51 | 53 | 5.0 | 7.0 | 0.00 | 0.00 | 0.00 | 77 | 1009.8 |
| 20260505233310 | 51 | 358 | 2.0 | 8.0 | 0.00 | 0.00 | 0.00 | 76 | 1009.9 |
| 20260505232806 | 51 | 272 | 1.0 | 7.0 | 0.00 | 0.00 | 0.00 | 76 | 1009.7 |
| 20260505232305 | 51 | 99 | 0.0 | 4.0 | 0.00 | 0.00 | 0.00 | 76 | 1009.8 |
| 20260505231758 | 51 | 73 | 1.0 | 6.0 | 0.00 | 0.00 | 0.00 | 76 | 1009.9 |
| 20260505231254 | 51 | 55 | 4.0 | 11.0 | 0.00 | 0.00 | 0.00 | 75 | 1010.0 |
| 20260505230750 | 51 | 32 | 3.0 | 7.0 | 0.00 | 0.00 | 0.00 | 75 | 1009.7 |
| 20260505230246 | 51 | 17 | 4.0 | 8.0 | 0.00 | 0.00 | 0.00 | 75 | 1010.0 |
| 20260505225741 | 51 | 304 | 1.0 | 8.0 | 0.00 | 0.00 | 0.01 | 75 | 1009.6 |
| 20260505225237 | 52 | 48 | 2.0 | 8.0 | 0.00 | 0.00 | 0.01 | 75 | 1010.1 |
| 20260505224734 | 52 | 78 | 6.0 | 9.0 | 0.00 | 0.00 | 0.01 | 75 | 1009.7 |
| 20260505224230 | 52 | 90 | 2.0 | 7.0 | 0.00 | 0.00 | 0.01 | 75 | 1009.9 |
| 20260505223726 | 52 | 4 | 5.0 | 13.0 | 0.00 | 0.00 | 0.01 | 75 | 1009.7 |
| 20260505223222 | 52 | 26 | 2.0 | 6.0 | 0.00 | 0.00 | 0.01 | 75 | 1009.7 |
| 20260505222718 | 51 | 20 | 8.0 | 11.0 | 0.00 | 0.00 | 0.01 | 76 | 1009.8 |
| 20260505222214 | 52 | 26 | 3.0 | 14.0 | 0.00 | 0.00 | 0.01 | 80 | 1010.1 |
| 20260505221710 | 52 | 13 | 4.0 | 6.0 | 0.01 | 0.00 | 0.01 | 82 | 1009.8 |
| 20260505221206 | 52 | 355 | 3.0 | 8.0 | 0.01 | 0.00 | 0.01 | 82 | 1009.7 |
| 20260505220702 | 52 | 36 | 4.0 | 8.0 | 0.01 | 0.00 | 0.01 | 82 | 1009.8 |
| 20260505220158 | 52 | 27 | 3.0 | 6.0 | 0.01 | 0.00 | 0.01 | 82 | 1009.7 |
| 20260505215654 | 52 | 62 | 3.0 | 4.0 | 0.01 | 0.00 | 0.01 | 83 | 1009.8 |
| 20260505215149 | 52 | 18 | 2.0 | 4.0 | 0.01 | 0.00 | 0.01 | 83 | 1009.8 |
| 20260505214646 | 52 | 356 | 4.0 | 8.0 | 0.01 | 0.00 | 0.01 | 83 | 1009.7 |
| 20260505214142 | 52 | 50 | 3.0 | 6.0 | 0.01 | 0.00 | 0.01 | 83 | 1009.5 |
| 20260505213638 | 52 | 55 | 6.0 | 8.0 | 0.01 | 0.00 | 0.01 | 83 | 1009.6 |
| 20260505213133 | 52 | 50 | 2.0 | 3.0 | 0.01 | 0.00 | 0.01 | 82 | 1009.5 |
| 20260505212629 | 52 | 4 | 10.0 | 13.0 | 0.01 | 0.00 | 0.01 | 82 | 1009.7 |
| 20260505212125 | 52 | 354 | 4.0 | 14.0 | 0.00 | 0.00 | 0.00 | 81 | 1009.6 |
| 20260505211621 | 52 | 29 | 6.0 | 9.0 | 0.00 | 0.00 | 0.00 | 81 | 1009.9 |
| 20260505211117 | 53 | 62 | 3.0 | 7.0 | 0.00 | 0.00 | 0.00 | 80 | 1009.6 |
| 20260505210613 | 53 | 86 | 5.0 | 10.0 | 0.00 | 0.00 | 0.00 | 80 | 1009.7 |
| 20260505210109 | 54 | 52 | 4.0 | 10.0 | 0.00 | 0.00 | 0.00 | 78 | 1009.6 |
| 20260505205605 | 54 | 21 | 7.0 | 13.0 | 0.00 | 0.00 | 0.00 | 74 | 1009.6 |
| 20260505205102 | 55 | 54 | 6.0 | 8.0 | 0.00 | 0.00 | 0.00 | 71 | 1009.6 |
| 20260505204558 | 55 | 43 | 11.0 | 16.0 | 0.00 | 0.00 | 0.00 | 68 | 1009.5 |
| 20260505204054 | 55 | 346 | 2.0 | 6.0 | 0.00 | 0.00 | 0.00 | 67 | 1009.4 |
| 20260505203549 | 55 | 41 | 2.0 | 3.0 | 0.00 | 0.00 | 0.00 | 68 | 1009.3 |
| 20260505203045 | 55 | 58 | 3.0 | 6.0 | 0.00 | 0.00 | 0.00 | 69 | 1009.2 |
| 20260505202541 | 55 | 32 | 4.0 | 7.0 | 0.00 | 0.00 | 0.00 | 71 | 1009.4 |
| 20260505202037 | 55 | 56 | 3.0 | 7.0 | 0.00 | 0.00 | 0.00 | 71 | 1009.3 |
| 20260505201533 | 55 | 51 | 2.0 | 4.0 | 0.00 | 0.00 | 0.00 | 70 | 1009.0 |
| 20260505201029 | 55 | 78 | 1.0 | 4.0 | 0.00 | 0.00 | 0.00 | 70 | 1009.0 |
| 20260505200525 | 55 | 47 | 3.0 | 4.0 | 0.00 | 0.00 | 0.00 | 70 | 1009.1 |
| 20260505200021 | 55 | 45 | 3.0 | 3.0 | 0.00 | 0.00 | 0.00 | 70 | 1009.1 |
| 20260505195517 | 55 | 106 | 2.0 | 4.0 | 0.00 | 0.00 | 0.00 | 70 | 1008.8 |
| 20260505195014 | 55 | 52 | 1.0 | 2.0 | 0.00 | 0.00 | 0.00 | 70 | 1008.5 |
| 20260505194510 | 55 | 89 | 3.0 | 6.0 | 0.00 | 0.00 | 0.00 | 69 | 1008.6 |
| 20260505194005 | 55 | 69 | 1.0 | 4.0 | 0.00 | 0.00 | 0.00 | 69 | 1008.7 |
| 20260505193501 | 56 | 51 | 4.0 | 6.0 | 0.00 | 0.00 | 0.00 | 68 | 1008.6 |
| 20260505192957 | 56 | 67 | 2.0 | 4.0 | 0.00 | 0.00 | 0.00 | 68 | 1008.7 |
| 20260505192453 | 56 | 32 | 2.0 | 4.0 | 0.00 | 0.00 | 0.00 | 69 | 1008.6 |
| 20260505191949 | 56 | 344 | 1.0 | 4.0 | 0.00 | 0.00 | 0.00 | 68 | 1008.4 |
| 20260505191445 | 57 | 16 | 4.0 | 9.0 | 0.00 | 0.00 | 0.00 | 67 | 1008.4 |
| 20260505190941 | 57 | 7 | 2.0 | 7.0 | 0.00 | 0.00 | 0.00 | 65 | 1008.4 |
| 20260505190437 | 57 | 46 | 4.0 | 4.0 | 0.00 | 0.00 | 0.00 | 64 | 1008.3 |
| 20260505185933 | 57 | 33 | 4.0 | 4.0 | 0.00 | 0.00 | 0.00 | 64 | 1008.4 |
| 20260505185429 | 58 | 17 | 4.0 | 4.0 | 0.00 | 0.00 | 0.00 | 63 | 1008.1 |
| 20260505184926 | 58 | 50 | 3.0 | 4.0 | 0.00 | 0.00 | 0.00 | 62 | 1008.1 |
| 20260505184422 | 58 | 82 | 2.0 | 3.0 | 0.00 | 0.00 | 0.00 | 62 | 1008.1 |
| 20260505183917 | 58 | 104 | 0.0 | 1.0 | 0.00 | 0.00 | 0.00 | 62 | 1007.8 |
| 20260505183413 | 58 | 127 | 1.0 | 1.0 | 0.00 | 0.00 | 0.00 | 62 | 1007.9 |
| 20260505182909 | 58 | 72 | 1.0 | 2.0 | 0.00 | 0.00 | 0.00 | 62 | 1007.9 |
| 20260505182405 | 58 | 82 | 2.0 | 4.0 | 0.00 | 0.00 | 0.00 | 62 | 1008.0 |
| 20260505181901 | 58 | 90 | 2.0 | 3.0 | 0.00 | 0.00 | 0.00 | 62 | 1008.0 |
| 20260505181357 | 58 | 55 | 2.0 | 4.0 | 0.00 | 0.00 | 0.00 | 62 | 1008.0 |
| 20260505180853 | 58 | 36 | 1.0 | 6.0 | 0.00 | 0.00 | 0.00 | 62 | 1007.8 |
| 20260505180349 | 58 | 91 | 3.0 | 4.0 | 0.00 | 0.00 | 0.00 | 61 | 1008.0 |
| 20260505175845 | 58 | 62 | 2.0 | 6.0 | 0.00 | 0.00 | 0.00 | 61 | 1007.9 |
| 20260505175341 | 58 | 134 | 2.0 | 4.0 | 0.00 | 0.00 | 0.00 | 61 | 1008.1 |
| 20260505174838 | 58 | 55 | 2.0 | 3.0 | 0.00 | 0.00 | 0.00 | 61 | 1008.0 |
| 20260505174334 | 58 | 76 | 1.0 | 6.0 | 0.00 | 0.00 | 0.00 | 60 | 1008.2 |
| 20260505173830 | 59 | 78 | 1.0 | 2.0 | 0.00 | 0.00 | 0.00 | 59 | 1008.0 |
| 20260505173326 | 59 | 134 | 2.0 | 3.0 | 0.00 | 0.00 | 0.00 | 59 | 1008.1 |
| 20260505172822 | 59 | 111 | 1.0 | 4.0 | 0.00 | 0.00 | 0.00 | 59 | 1008.0 |
| 20260505172318 | 59 | 86 | 2.0 | 3.0 | 0.00 | 0.00 | 0.00 | 59 | 1007.9 |
| 20260505171814 | 59 | 111 | 2.0 | 4.0 | 0.00 | 0.00 | 0.00 | 59 | 1008.0 |
| 20260505171310 | 59 | 136 | 2.0 | 7.0 | 0.00 | 0.00 | 0.00 | 59 | 1008.2 |
| 20260505170806 | 59 | 124 | 4.0 | 7.0 | 0.00 | 0.00 | 0.00 | 58 | 1008.2 |
| 20260505170302 | 59 | 91 | 0.0 | 7.0 | 0.00 | 0.00 | 0.00 | 57 | 1008.1 |
| 20260505165758 | 59 | 89 | 4.0 | 6.0 | 0.00 | 0.00 | 0.00 | 56 | 1008.2 |
| 20260505165254 | 59 | 48 | 3.0 | 4.0 | 0.00 | 0.00 | 0.00 | 56 | 1008.1 |
| 20260505164749 | 59 | 48 | 4.0 | 6.0 | 0.00 | 0.00 | 0.00 | 55 | 1008.0 |
| 20260505164245 | 59 | 64 | 2.0 | 3.0 | 0.00 | 0.00 | 0.00 | 56 | 1008.0 |
| 20260505163741 | 59 | 99 | 4.0 | 6.0 | 0.00 | 0.00 | 0.00 | 55 | 1008.1 |
| 20260505163237 | 60 | 114 | 3.0 | 6.0 | 0.00 | 0.00 | 0.00 | 55 | 1008.2 |
| 20260505162733 | 60 | 100 | 3.0 | 8.0 | 0.00 | 0.00 | 0.00 | 54 | 1008.2 |
| 20260505162229 | 60 | 131 | 4.0 | 6.0 | 0.00 | 0.00 | 0.00 | 54 | 1008.2 |
| 20260505161725 | 60 | 81 | 5.0 | 7.0 | 0.00 | 0.00 | 0.00 | 54 | 1007.9 |
| 20260505161221 | 60 | 33 | 5.0 | 8.0 | 0.00 | 0.00 | 0.00 | 54 | 1008.1 |
| 20260505160717 | 60 | 92 | 4.0 | 7.0 | 0.00 | 0.00 | 0.00 | 53 | 1008.1 |
| 20260505160213 | 60 | 82 | 6.0 | 7.0 | 0.00 | 0.00 | 0.00 | 53 | 1008.3 |
| 20260505153148 | 61 | 49 | 3.0 | 4.0 | 0.00 | 0.00 | 0.00 | 52 | 1007.9 |
| 20260505152644 | 61 | 67 | 4.0 | 7.0 | 0.00 | 0.00 | 0.00 | 51 | 1008.0 |
| 20260505152140 | 61 | 67 | 2.0 | 4.0 | 0.00 | 0.00 | 0.00 | 51 | 1008.2 |
| 20260505151636 | 62 | 52 | 0.0 | 3.0 | 0.00 | 0.00 | 0.00 | 51 | 1008.0 |
| 20260505151132 | 61 | 292 | 0.0 | 1.0 | 0.00 | 0.00 | 0.00 | 51 | 1007.9 |
| 20260505150628 | 62 | 46 | 5.0 | 6.0 | 0.00 | 0.00 | 0.00 | 50 | 1008.1 |
| 20260505150124 | 61 | 45 | 3.0 | 3.0 | 0.00 | 0.00 | 0.00 | 52 | 1008.2 |
| 20260505140541 | 61 | 77 | 3.0 | 9.0 | 0.00 | 0.00 | 0.00 | 51 | 1008.3 |
| 20260505124940 | 62 | 45 | 5.0 | 7.0 | 0.00 | 0.00 | 0.00 | 47 | 1008.6 |
| 20260505124436 | 62 | 283 | 3.0 | 6.0 | 0.00 | 0.00 | 0.00 | 51 | 1008.9 |
| 20260505123932 | 64 | 71 | 1.0 | 4.0 | 0.00 | 0.00 | 0.00 | 49 | 1008.7 |
| 20260505123428 | 62 | 116 | 2.0 | 6.0 | 0.00 | 0.00 | 0.00 | 47 | 1008.3 |
| 20260505122924 | 61 | 335 | 4.0 | 6.0 | 0.00 | 0.00 | 0.00 | 48 | 1008.7 |
| 20260505122420 | 62 | 21 | 4.0 | 9.0 | 0.00 | 0.00 | 0.00 | 49 | 1008.7 |
| 20260505121916 | 61 | 9 | 2.0 | 3.0 | 0.00 | 0.00 | 0.00 | 51 | 1008.7 |
| 20260505121412 | 61 | 30 | 9.0 | 10.0 | 0.00 | 0.00 | 0.00 | 51 | 1008.8 |
| 20260505120908 | 61 | 144 | 0.0 | 4.0 | 0.00 | 0.00 | 0.00 | 52 | 1008.7 |
| 20260505120404 | 61 | 70 | 3.0 | 7.0 | 0.00 | 0.00 | 0.00 | 54 | 1008.8 |
| 20260505115900 | 62 | 37 | 4.0 | 6.0 | 0.00 | 0.00 | 0.00 | 52 | 1008.8 |
| 20260505115356 | 62 | 22 | 5.0 | 8.0 | 0.00 | 0.00 | 0.00 | 49 | 1008.7 |
| 20260505114852 | 62 | 25 | 1.0 | 4.0 | 0.00 | 0.00 | 0.00 | 51 | 1008.8 |
| 20260505114348 | 60 | 34 | 2.0 | 4.0 | 0.00 | 0.00 | 0.00 | 56 | 1008.8 |
| 20260505113844 | 60 | 19 | 7.0 | 8.0 | 0.00 | 0.00 | 0.00 | 57 | 1008.9 |
| 20260505113340 | 60 | 65 | 2.0 | 4.0 | 0.00 | 0.00 | 0.00 | 56 | 1009.0 |
| 20260505112836 | 59 | 6 | 5.0 | 9.0 | 0.00 | 0.00 | 0.00 | 57 | 1008.8 |
| 20260505112332 | 60 | 49 | 5.0 | 10.0 | 0.00 | 0.00 | 0.00 | 57 | 1009.1 |
| 20260505111828 | 60 | 13 | 6.0 | 13.0 | 0.00 | 0.00 | 0.00 | 59 | 1009.2 |
| 20260505111324 | 59 | 65 | 2.0 | 6.0 | 0.00 | 0.00 | 0.00 | 61 | 1008.8 |
| 20260505110820 | 60 | 353 | 6.0 | 7.0 | 0.00 | 0.00 | 0.00 | 58 | 1009.1 |
| 20260505110316 | 59 | 25 | 7.0 | 10.0 | 0.00 | 0.00 | 0.00 | 60 | 1009.0 |
| 20260505101740 | 58 | 61 | 1.0 | 6.0 | 0.00 | 0.00 | 0.00 | 63 | 1009.4 |
| 20260505101236 | 58 | 0 | 3.0 | 9.0 | 0.00 | 0.00 | 0.00 | 63 | 1009.7 |
| 20260505100732 | 58 | 287 | 2.0 | 10.0 | 0.00 | 0.00 | 0.00 | 64 | 1009.4 |
| 20260505100228 | 58 | 16 | 1.0 | 7.0 | 0.00 | 0.00 | 0.00 | 63 | 1009.4 |
| 20260505095724 | 57 | 33 | 3.0 | 8.0 | 0.00 | 0.00 | 0.00 | 64 | 1009.7 |
| 20260505095220 | 57 | 36 | 7.0 | 8.0 | 0.00 | 0.00 | 0.00 | 65 | 1009.8 |
| 20260505094717 | 57 | 71 | 2.0 | 10.0 | 0.00 | 0.00 | 0.00 | 65 | 1009.8 |
| 20260505094213 | 57 | 317 | 2.0 | 7.0 | 0.00 | 0.00 | 0.00 | 66 | 1009.6 |
| 20260505093709 | 56 | 339 | 0.0 | 7.0 | 0.00 | 0.00 | 0.00 | 68 | 1009.6 |
| 20260505093205 | 56 | 339 | 4.0 | 9.0 | 0.00 | 0.00 | 0.00 | 68 | 1009.6 |
| 20260505092701 | 56 | 4 | 3.0 | 6.0 | 0.00 | 0.00 | 0.00 | 70 | 1009.8 |
| 20260505092157 | 55 | 136 | 1.0 | 9.0 | 0.00 | 0.00 | 0.00 | 72 | 1010.0 |
| 20260505091653 | 56 | 29 | 6.0 | 9.0 | 0.00 | 0.00 | 0.00 | 72 | 1009.8 |
| 20260505091149 | 55 | 22 | 4.0 | 6.0 | 0.00 | 0.00 | 0.00 | 72 | 1009.9 |
| 20260505090645 | 55 | 20 | 4.0 | 11.0 | 0.00 | 0.00 | 0.00 | 73 | 1009.9 |
| 20260505090140 | 55 | 271 | 1.0 | 8.0 | 0.00 | 0.00 | 0.00 | 73 | 1009.8 |
| 20260505085636 | 55 | 28 | 2.0 | 7.0 | 0.00 | 0.00 | 0.00 | 74 | 1010.0 |
| 20260505085133 | 54 | 19 | 1.0 | 4.0 | 0.00 | 0.00 | 0.00 | 75 | 1010.1 |
| 20260505084629 | 54 | 49 | 3.0 | 6.0 | 0.00 | 0.00 | 0.00 | 75 | 1010.1 |